Regional Weather Roundup
Issued by NWS Portland, ME

Home | Current Version | Previous Version | Text Only | Print | Product List | Glossary On
Versions: 1 2 3 4 5 6 7 8 9 10 11 12 13 14 15 16 17 18 19 20 21 22 23 24 25 26 27 28 29 30 31 32 33 34 35 36 37 38 39 40 41 42 43 44 45 46 47 48 49 50
000
ASUS41 KGYX 061310
RWRGYX
WEATHER ROUNDUP FOR MAINE AND NEW HAMPSHIRE
NATIONAL WEATHER SERVICE GRAY ME
800 AM EST SAT FEB 06 2016

MEZ002-005-006-010-012-015-018-020-021-024-026-027-029-061400-
MAINE

CITY           SKY/WX    TMP DP  RH WIND       PRES   REMARKS
PORTLAND       MOSUNNY   13  11  92 CALM      30.33R
SANFORD        CLEAR     12  12 100 SW9       30.32R
BAR HARBOR     SUNNY     21  18  86 SW5       30.30R
WISCASSET      SUNNY     14  11  87 CALM      30.32R
ROCKLAND       SUNNY     18  13  80 W9        30.31R
FRYEBURG       CLOUDY    17  12  80 CALM      30.27S
LEWISTONAUBURN PTCLDY    12   9  85 CALM      30.28R
AUGUSTA        PTCLDY    19  12  74 VRB5      30.28R
WATERVILLE     PTCLDY    16  12  84 SW5       30.25R
BANGOR         CLOUDY    14  11  87 SW5       30.27R
GREENVILLE       N/A     15   8  73 CALM      30.12R
MILLINOCKET    PTCLDY    16   8  71 CALM      30.22R
HOULTON        MOSUNNY   11   6  81 SW5       30.16R
PRESQUE ISLE   CLOUDY     5   1  83 CALM      30.15S
FRENCHVILLE    CLOUDY     5   1  83 CALM      30.08R
CARIBOU        CLOUDY     7   2  80 SW6       30.13R
$$

NHZ002-005-008-009-011-012-014-061400-
NEW HAMPSHIRE

CITY           SKY/WX    TMP DP  RH WIND       PRES   REMARKS
PORTSMOUTH     PTSUNNY   18  13  81 SW2       30.34R
ROCHESTER      CLEAR     20  13  74 CALM      30.32R
NASHUA         CLOUDY    11   9  92 CALM      30.35S
MANCHESTER     CLOUDY    17  13  84 CALM      30.33R
CONCORD        CLOUDY    11   8  88 CALM      30.33R
LACONIA        CLEAR     19  10  68 SW6       30.30R
PLYMOUTH       FAIR      19  15  82 CALM      30.29S
BERLIN         CLOUDY    18  12  77 CALM      30.21R
WHITEFIELD     CLOUDY    18  13  80 CALM      30.22R
JAFFREY        CLOUDY    16  11  80 S6        30.30R
KEENE          PTCLDY    10   7  85 CALM      30.35R
LEBANON        PTCLDY    19  14  81 CALM      30.29R
MT WASHINGTON  FOG        5   5 100 W59         N/A  VSB 0   WCI -26
$$

VTZ005-007-008-061400-
VERMONT

CITY           SKY/WX    TMP DP  RH WIND       PRES   REMARKS
ST JOHNSBURY     N/A     22  14  71 MISG      30.23R
MONTPELIER     MOCLDY    22  14  71 SE9       30.25R
BURLINGTON     FLURRIES  27  17  66 S13       30.24S WCI  16
$$

MAZ007-012-024-CTZ003-RIZ002-NYZ038-NYZ072-061400-
SOUTHERN NEW ENGLAND AND NY

CITY           SKY/WX    TMP DP  RH WIND       PRES   REMARKS
BOSTON         MOSUNNY   26  17  68 W7        30.36S
WORCESTER        N/A    N/A N/A N/A MISG      30.31R
NANTUCKET      SUNNY     30  22  72 NW6       30.39R
PROVIDENCE     CLOUDY    22  16  78 W8        30.39S
HARTFORD       CLOUDY    19  15  84 CALM      30.38R
ALBANY         MOCLDY    25  16  68 S7        30.35R
NEW YORK CITY  PTCLDY    34  18  52 W9        30.42R
$$

ANZ081-ANZ082-ANZ150-NHZ014-MEZ023>029-061400-
COASTAL MARINE OBSERVATIONS

STATION/POSITION TIME  TEMP    WIND        PRES    WAVE
                       AIR SEA DIR/SP/G            HT/PER
                 (UTC) (F)     (DEG/KT/KT) (MB)    (FT/S)
MOUNT DESERT ROC 1300   28     290/ 14/ 17 1025.7R
MATINICUS ROCK   1300          290/  9/ 10 1026.1R
ISLE OF SHOALS   1300   28     250/ 13/ 14 1027.0R
JEFFREYS LEDGE   1204      44                N/A     5/10
CASHES LEDGE BUO 1250   33 43  290/ 10/ 14 1026.2R   5/ 5
GEORGES BANK BUO 1250   37 44              1025.8R  12/10
$$

.............KEY..............
   WCI - WIND CHILL
   TC  - TEMPERATURE IN CELSIUS
   VSB - VISIBILITY IN MILES
   HX  - HEAT INDEX
   FAIR- INDICATES FEW OR NO CLOUDS BELOW 12,000 FT, WITH NO
         SIGNIFICANT WEATHER AND/OR OBSTRUCTIONS TO VISIBILITY.





USA.gov is the U.S. government's official web portal to all federal, state and local government web resources and services.